Temperature
10 9 8 9 10 10 10 10 10 10 11 10 9 10 11 11 11 10 10 10 10 10 10 9 9 9 9 9 9 9 9 10 10 10 10 10 10 10 10 10 10 10 10 10
9 8 9 10 10 10 10 9 9 10 10 10 9 10 10 10 10 10 10 10 9 9 9 9 9 9 9 9 9 9 9 9 9 9 9 9 9 9 9 9 9 10 10 10
8 9 10 10 9 9 9 9 9 9 9 10 9 9 10 10 10 10 10 10 9 9 9 8 8 8 8 8 8 8 9 9 9 9 9 9 8 8 8 9 9 9 9 9
9 9 9 9 9 9 8 9 9 9 8 8 9 7 9 9 9 9 9 9 9 9 8 8 8 8 8 8 8 8 8 8 8 8 8 8 8 8 8 8 8 8 8 9
8 8 8 8 8 8 8 9 8 8 7 7 8 7 8 9 9 8 8 8 8 8 8 7 7 7 7 7 7 7 7 7 8 7 7 7 7 8 8 8 8 8 8 8
8 8 8 8 8 8 8 8 8 8 7 6 8 8 8 8 9 8 8 8 8 7 7 7 7 7 7 7 7 7 7 7 7 7 7 7 7 7 7 7 7 7 8 8
7 8 8 8 7 8 7 6 6 6 6 7 9 8 8 9 8 8 8 8 7 7 7 6 6 6 6 6 6 6 6 6 6 6 6 6 6 6 6 7 7 7 7 7
7 7 7 7 7 6 7 7 6 6 7 7 9 8 8 9 8 8 8 7 6 6 6 6 5 6 6 6 6 6 6 6 6 6 6 6 6 6 6 6 6 6 6 7
6 6 7 7 7 7 7 6 7 6 6 6 7 8 8 8 7 7 7 6 6 5 5 5 5 5 5 5 5 5 5 5 5 5 5 5 5 5 5 6 6 6 6 6
5 5 6 7 6 6 6 6 5 5 6 6 8 8 7 7 6 6 6 6 5 5 5 5 5 5 5 5 5 5 5 5 5 5 5 5 5 5 5 5 5 5 5 6
5 4 5 6 5 5 5 5 5 5 5 6 6 7 7 7 6 6 5 5 5 4 4 4 4 4 4 4 4 4 5 5 5 5 5 5 5 4 4 4 5 5 5 5
4 4 4 5 6 6 6 6 5 4 5 5 5 5 7 6 6 5 5 5 4 4 4 4 4 4 4 4 4 4 4 4 4 4 4 4 4 4 4 4 4 4 4 5
3 3 3 5 5 4 4 5 4 4 3 4 4 5 6 6 5 5 4 4 4 3 3 3 3 3 3 3 3 4 4 4 4 4 4 4 4 3 3 4 4 4 4 4
3 2 3 4 4 3 3 3 3 3 2 3 4 5 5 5 4 4 4 4 3 3 2 2 2 2 3 3 3 3 3 3 3 3 3 3 3 3 3 3 3 3 3 3
2 1 2 2 3 3 3 3 3 2 2 3 4 4 4 4 3 4 4 3 3 2 2 2 2 2 2 2 2 2 2 2 3 3 3 3 3 3 3 3 3 2 2 3
1 1 1 1 3 3 3 2 2 2 2 3 3 3 4 4 4 3 3 3 2 2 2 1 1 2 2 2 2 2 2 2 2 2 2 2 2 2 2 2 2 2 2 2
-0 -0 1 2 2 2 2 2 2 2 2 2 2 3 3 3 3 3 2 2 1 1 1 1 1 1 1 1 1 1 1 1 1 1 1 1 1 2 2 2 2 1 1 1
-1 -0 1 1 1 2 3 3 2 2 2 2 2 2 2 2 2 2 2 1 1 1 1 1 1 1 1 1 1 1 1 1 0 0 0 1 1 1 1 1 1 1 1 1
-0 -0 1 1 1 2 3 2 2 1 1 1 1 1 2 2 2 1 1 1 0 0 0 0 0 0 0 0 0 0 0 -0 -0 -0 -0 0 0 0 0 0 0 0 0 0
-1 -1 -0 1 1 2 3 1 1 1 1 1 1 1 1 1 -1 -0 0 0 -0 -0 -0 -0 -0 -0 -0 -0 -0 -0 -0 -1 -1 -1 -1 -0 -0 -0 -0 -0 -0 -0 -1 -1
-2 -1 -1 0 1 2 1 0 1 1 1 1 1 1 0 -0 -1 -0 -0 -1 -1 -1 -1 -1 -1 -1 -1 -1 -1 -1 -1 -1 -1 -1 -1 -1 -1 -1 -1 -1 -1 -1 -1 -1
-1 -1 -1 -0 0 1 -0 -1 -0 0 1 1 0 0 -0 -0 -0 -1 -1 -1 -1 -1 -1 -1 -1 -1 -1 -1 -1 -2 -2 -2 -2 -2 -2 -2 -2 -1 -1 -1 -1 -1 -1 -1
-0 0 -0 -0 1 1 1 1 1 1 1 1 0 0 -0 -1 -1 -1 -2 -2 -2 -2 -2 -2 -2 -2 -2 -2 -2 -2 -2 -2 -2 -2 -2 -2 -2 -2 -2 -2 -2 -2 -2 -2
-0 -0 -0 -1 -0 1 1 1 1 0 0 0 -0 -0 -1 -1 -1 -2 -2 -2 -2 -2 -2 -2 -2 -2 -2 -2 -3 -3 -3 -3 -2 -2 -3 -3 -3 -3 -3 -2 -2 -2 -2 -2
0 -1 -1 -2 -1 -0 1 0 0 -0 -0 -0 -1 -1 -1 -1 -2 -2 -2 -3 -3 -3 -3 -3 -3 -3 -3 -3 -3 -3 -3 -3 -3 -3 -3 -3 -3 -3 -3 -3 -3 -3 -3 -3
-1 -2 -2 -1 -1 -1 -1 -0 -0 -1 -1 -1 -1 -1 -1 -2 -2 -2 -3 -3 -3 -3 -3 -3 -3 -3 -3 -3 -3 -3 -3 -3 -3 -3 -3 -4 -4 -4 -4 -4 -4 -4 -3 -3
Wind_Speed
2 2 3 3 5 6 6 6 8 6 4 5 8 11 10 6 7 7 5 5 4 4 2 2 3 2 1 2 2 2 2 2 2 2 3 2 2 2 1 1 1 2 2 3
2 3 4 5 5 5 6 7 8 6 3 5 8 12 10 7 8 8 7 6 4 3 2 2 3 2 2 2 2 2 2 2 2 2 3 2 3 2 2 1 1 1 2 2
3 1 2 4 4 6 6 6 6 7 7 6 7 9 7 5 6 6 5 4 4 5 4 3 2 2 1 2 2 2 2 2 3 3 3 2 2 1 1 1 2 1 1 2
2 2 3 4 4 5 5 4 5 7 6 4 3 5 4 4 4 4 4 4 4 4 3 2 2 2 2 2 2 2 2 2 2 3 4 5 4 3 3 3 2 2 2 2
1 1 2 2 3 4 3 5 6 7 6 6 6 5 5 3 4 4 4 4 3 3 3 2 3 3 2 2 2 3 3 2 2 3 4 5 4 3 3 3 3 3 2 2
3 1 2 2 3 3 4 4 5 4 3 5 6 6 4 2 3 2 2 2 2 2 1 1 1 1 1 1 2 3 3 3 2 2 4 5 5 5 4 4 4 3 2 2
2 2 1 1 2 1 2 2 2 1 2 5 2 3 5 2 2 2 2 1 0 1 1 0 1 1 1 1 2 3 3 3 2 3 4 5 5 6 6 6 5 4 3 2
2 2 1 0 1 1 2 1 1 2 3 3 2 4 3 2 4 5 4 4 3 2 2 0 1 1 2 2 2 3 3 3 2 3 4 4 5 4 4 5 4 4 3 3
2 2 1 2 2 2 2 1 1 2 3 3 4 4 2 3 5 5 5 5 4 3 3 2 2 1 2 2 2 2 3 3 3 3 3 3 4 4 4 4 4 3 3 3
2 3 2 0 1 2 2 2 1 1 2 4 5 4 3 2 4 4 5 5 5 4 3 3 3 2 1 2 2 1 2 2 3 2 3 2 3 4 4 3 3 3 3 3
2 2 2 1 3 2 2 2 2 3 3 3 4 3 2 2 3 4 5 5 5 4 4 3 3 2 1 1 1 1 2 2 2 2 2 2 3 3 3 2 3 3 3 3
2 1 3 3 0 2 2 2 2 2 4 3 4 4 2 4 4 5 6 6 6 5 5 4 3 2 3 2 1 2 2 2 2 1 2 2 2 2 2 2 2 2 3 3
1 1 3 3 1 1 2 3 2 2 2 4 5 5 1 4 5 6 5 6 6 5 4 4 3 3 3 2 2 3 2 2 1 0 1 2 1 1 2 2 1 1 2 2
1 2 4 5 3 2 4 4 3 3 3 5 7 8 8 7 7 7 6 6 5 5 5 5 4 3 3 2 2 2 3 2 2 1 1 2 1 1 1 1 1 1 1 2
0 3 5 8 9 6 7 8 6 7 7 7 8 9 10 8 8 7 7 6 5 6 5 6 5 4 4 3 3 2 3 3 2 2 2 1 1 1 1 2 2 1 1 1
0 2 3 6 7 6 9 10 9 9 8 10 12 13 9 8 7 7 6 6 6 6 6 6 5 4 4 3 3 3 3 3 2 2 2 2 2 2 2 2 1 1 1 1
2 1 2 5 4 5 7 8 8 7 7 7 10 10 7 7 7 6 5 5 6 6 6 6 4 3 3 2 2 2 2 2 2 2 2 2 2 2 2 2 2 1 1 1
3 2 2 4 4 6 5 1 4 7 8 7 8 7 7 6 6 5 4 5 5 6 6 6 5 4 3 3 3 2 2 2 2 2 2 2 2 2 1 2 1 1 1 0
4 4 3 2 4 7 4 2 1 3 6 4 6 8 7 6 5 3 4 5 5 5 5 4 4 4 4 3 3 2 2 2 2 2 2 2 2 2 2 1 1 1 1 0
0 2 3 3 4 5 3 1 1 1 4 3 3 5 5 4 3 4 5 6 6 5 5 4 4 4 4 3 3 2 2 2 1 1 1 1 1 1 1 1 1 1 1 1
1 2 5 6 6 6 2 0 1 1 4 4 3 4 4 3 4 4 4 5 4 4 4 4 4 4 3 3 3 2 2 1 1 1 1 1 1 1 1 0 0 1 1 1
5 4 4 4 5 7 1 3 3 4 3 4 4 4 5 5 4 3 3 3 4 4 5 4 4 4 4 3 3 2 2 2 1 1 1 1 1 1 1 1 1 1 1 1
6 6 4 7 7 3 3 3 3 2 4 4 4 5 4 4 4 3 3 3 3 3 3 3 4 4 4 4 3 2 3 3 2 2 1 1 1 1 1 1 1 1 1 1
3 2 3 5 6 5 5 4 4 4 5 5 5 4 4 4 3 3 3 3 3 3 3 3 3 4 4 4 4 3 3 3 2 1 1 1 1 2 2 1 1 1 1 1
3 3 3 6 6 6 4 4 5 5 5 5 5 4 3 3 3 3 3 3 2 3 3 3 3 3 4 4 4 4 4 3 2 1 1 1 1 1 1 1 1 1 1 2
4 4 4 6 4 3 5 4 4 5 6 6 5 4 3 2 3 2 3 3 2 3 3 3 4 4 4 4 4 4 4 2 1 1 1 1 1 1 1 1 2 2 2 2
Wind_Direction
204 230 231 244 245 261 287 285 284 286 293 286 268 272 271 263 254 253 251 246 247 242 224 189 210 228 201 187 179 180 166 173 169 169 172 174 178 169 161 155 145 159 157 150
222 240 268 285 286 277 266 272 282 289 290 287 279 277 272 253 246 246 247 246 243 250 239 230 216 216 226 220 202 201 195 193 191 191 181 186 181 178 178 170 141 168 157 142
240 263 291 285 286 282 278 269 280 294 308 273 281 282 246 234 231 240 244 250 249 245 242 232 241 239 233 231 225 226 201 206 200 191 162 158 168 170 180 191 193 199 191 177
275 282 285 288 287 287 286 310 300 294 297 279 249 287 256 229 231 237 247 250 248 254 248 226 230 249 241 226 214 231 221 205 198 193 175 174 186 190 203 199 202 187 182 189
293 352 311 289 300 298 288 313 296 284 274 282 252 247 274 219 239 245 248 244 240 242 246 235 231 240 238 209 203 216 233 228 195 200 197 187 199 202 187 185 196 192 182 187
259 283 311 306 315 300 306 298 278 261 255 266 238 219 272 249 251 271 274 247 221 219 235 256 284 288 262 218 207 215 216 229 202 196 209 198 200 199 188 191 196 196 190 190
253 212 200 250 288 266 296 344 340 302 236 248 226 225 251 284 3 9 332 347 75 82 35 286 311 319 291 253 223 213 215 222 210 207 212 212 205 201 198 194 193 196 201 202
298 271 166 180 294 277 266 247 198 265 272 301 299 247 253 45 36 30 30 34 27 22 26 353 287 277 280 270 239 216 220 223 217 221 221 216 207 198 203 198 196 201 205 202
323 292 14 356 339 314 289 241 262 278 281 273 254 248 254 10 13 14 8 10 360 356 3 359 347 317 285 264 254 231 231 222 222 226 223 224 212 201 207 199 193 200 196 191
320 289 268 246 303 282 281 315 318 226 278 276 267 254 289 335 336 346 350 347 345 356 357 354 345 332 284 263 261 234 241 233 229 222 224 232 211 203 202 196 193 189 179 177
314 276 274 218 214 238 213 234 239 253 258 265 285 281 24 22 10 356 342 338 339 349 347 343 340 341 315 305 314 276 273 270 246 223 223 211 207 191 196 194 185 182 174 172
335 291 271 248 244 342 291 271 209 226 263 252 267 274 25 40 30 11 358 348 347 353 355 356 356 357 347 330 302 299 285 286 272 230 206 194 188 175 189 189 187 175 173 174
343 278 305 303 295 346 299 302 294 284 288 260 255 265 356 19 2 354 346 339 340 346 352 351 346 345 344 352 357 346 323 308 301 197 163 155 171 171 183 185 191 171 160 156
342 234 224 249 276 295 275 279 262 224 233 258 248 270 298 325 333 333 330 325 329 335 340 347 347 342 349 2 11 4 351 359 23 44 113 125 148 171 157 145 125 122 149 152
301 252 255 270 278 273 265 266 250 232 234 244 270 282 290 303 314 319 321 326 330 334 343 349 345 350 11 17 12 6 10 9 18 38 50 74 91 100 90 88 80 76 94 117
311 262 285 276 264 264 271 263 251 247 248 253 271 279 284 299 310 315 321 331 332 336 342 346 349 0 4 6 357 5 7 11 30 47 41 49 72 83 79 84 83 70 68 73
193 226 276 279 303 303 271 249 230 234 232 236 250 261 292 308 313 314 321 335 330 334 341 339 340 346 343 344 358 355 358 36 53 47 43 45 60 72 71 66 67 44 55 66
193 221 250 290 320 261 251 207 213 237 252 243 259 284 301 299 305 314 334 326 324 333 339 342 353 355 359 4 5 10 26 57 67 58 40 34 44 57 62 62 61 17 39 79
213 201 239 260 274 273 269 259 214 234 275 252 260 285 302 321 319 313 347 354 344 345 349 350 1 2 7 12 14 27 35 54 65 57 38 25 37 36 50 43 14 350 330 312
289 186 222 235 255 259 265 12 22 82 288 304 289 292 311 342 315 296 345 351 354 359 360 360 1 3 3 360 15 36 32 42 45 32 17 23 30 38 34 359 326 322 319 311
179 206 219 234 248 265 275 134 104 171 273 329 334 309 303 271 259 286 326 342 351 353 355 360 5 0 352 356 16 27 21 7 342 8 35 28 24 26 3 26 348 350 338 344
188 195 209 209 230 260 171 136 188 242 307 323 317 310 300 297 308 323 334 340 351 355 358 3 6 358 358 6 21 21 358 340 14 54 55 27 2 354 7 35 355 2 343 335
206 202 201 204 223 262 187 211 246 295 301 304 304 302 297 301 306 316 324 332 342 347 349 360 5 1 2 5 12 9 340 351 37 62 50 16 3 0 12 11 327 335 329 313
230 213 241 262 265 268 256 258 282 290 287 294 294 289 291 291 293 302 313 320 334 340 346 354 4 360 354 356 360 351 341 354 32 49 12 8 7 353 350 333 317 319 304 297
244 197 238 258 274 294 279 279 293 300 302 302 302 296 283 285 288 294 305 312 324 337 349 1 357 348 344 349 352 351 350 359 19 21 353 351 344 333 335 329 306 291 270 266
228 215 228 251 264 261 278 295 299 298 296 292 293 299 290 279 290 309 314 317 331 341 352 353 346 344 343 346 344 343 346 351 6 1 346 331 321 329 335 332 336 332 306 328
Height
1485 1487 1487 1486 1484 1483 1482 1482 1481 1478 1477 1478 1476 1472 1469 1469 1470 1469 1469 1469 1469 1470 1472 1473 1473 1474 1474 1474 1475 1475 1476 1477 1477 1479 1481 1482 1484 1486 1488 1490 1492 1493 1495 1496
1486 1487 1485 1483 1482 1481 1482 1482 1480 1477 1476 1477 1474 1469 1465 1465 1465 1465 1465 1465 1466 1467 1468 1469 1470 1470 1471 1471 1471 1472 1473 1474 1475 1476 1477 1480 1481 1482 1484 1486 1488 1490 1491 1493
1485 1485 1483 1482 1483 1483 1482 1482 1481 1480 1478 1475 1475 1469 1462 1460 1460 1460 1461 1462 1463 1464 1465 1465 1466 1466 1467 1467 1468 1469 1470 1471 1472 1473 1474 1476 1478 1479 1481 1482 1484 1486 1488 1489
1484 1483 1483 1483 1484 1483 1483 1480 1479 1480 1483 1481 1476 1478 1461 1458 1458 1458 1459 1459 1460 1461 1461 1461 1462 1463 1463 1463 1464 1466 1467 1468 1469 1469 1470 1472 1473 1474 1476 1478 1480 1482 1484 1485
1485 1484 1484 1484 1484 1483 1483 1481 1481 1481 1483 1484 1476 1478 1463 1456 1457 1457 1456 1456 1456 1457 1458 1458 1458 1459 1459 1460 1461 1462 1463 1464 1464 1466 1467 1467 1469 1471 1473 1475 1476 1478 1480 1481
1485 1484 1485 1484 1484 1483 1482 1481 1480 1480 1483 1487 1472 1473 1466 1458 1454 1453 1453 1453 1453 1454 1455 1455 1454 1455 1456 1456 1457 1458 1459 1460 1461 1462 1463 1464 1466 1467 1468 1470 1472 1473 1475 1477
1485 1484 1484 1484 1484 1483 1484 1488 1489 1488 1487 1480 1463 1466 1464 1454 1452 1452 1452 1451 1451 1451 1451 1451 1451 1452 1452 1452 1453 1454 1455 1456 1458 1459 1460 1460 1462 1464 1465 1466 1467 1469 1470 1471
1488 1487 1484 1484 1485 1486 1484 1486 1493 1490 1483 1474 1465 1466 1459 1453 1452 1452 1452 1451 1451 1450 1450 1449 1449 1449 1449 1449 1449 1450 1451 1453 1454 1456 1456 1458 1459 1460 1461 1462 1463 1465 1466 1467
1491 1489 1485 1484 1484 1485 1485 1486 1484 1488 1484 1483 1472 1460 1455 1453 1452 1452 1452 1451 1450 1449 1448 1447 1447 1447 1447 1447 1447 1447 1449 1450 1451 1453 1453 1454 1456 1456 1457 1458 1460 1461 1462 1464
1492 1494 1486 1485 1485 1485 1486 1485 1488 1489 1487 1480 1465 1459 1460 1456 1455 1454 1453 1452 1450 1448 1447 1446 1446 1445 1445 1445 1445 1445 1446 1447 1448 1449 1450 1451 1452 1453 1454 1454 1456 1457 1459 1460
1493 1496 1490 1486 1487 1486 1486 1487 1486 1486 1484 1483 1476 1468 1457 1456 1455 1455 1454 1452 1451 1448 1446 1445 1444 1443 1443 1444 1444 1444 1444 1444 1444 1445 1446 1448 1448 1449 1450 1451 1452 1454 1455 1457
1494 1495 1493 1486 1483 1482 1482 1483 1485 1489 1485 1480 1480 1473 1457 1456 1455 1455 1454 1453 1450 1448 1446 1445 1443 1442 1441 1441 1441 1441 1441 1442 1442 1442 1443 1443 1444 1445 1447 1447 1448 1450 1451 1453
1496 1497 1495 1488 1488 1488 1486 1484 1485 1487 1487 1485 1481 1470 1457 1456 1455 1456 1455 1453 1450 1448 1446 1444 1441 1440 1439 1438 1438 1438 1439 1439 1439 1439 1439 1439 1441 1442 1443 1444 1445 1446 1448 1449
1495 1498 1498 1491 1486 1488 1488 1486 1486 1487 1489 1482 1473 1466 1460 1458 1458 1456 1455 1452 1450 1447 1445 1443 1440 1439 1437 1436 1436 1436 1436 1436 1436 1436 1436 1437 1438 1439 1440 1441 1442 1443 1445 1445
1496 1498 1495 1490 1486 1485 1485 1484 1483 1484 1481 1480 1469 1466 1462 1460 1458 1457 1455 1452 1449 1447 1444 1442 1439 1437 1435 1434 1434 1434 1434 1434 1434 1434 1434 1434 1436 1437 1437 1438 1439 1441 1442 1442
1496 1497 1495 1490 1483 1482 1481 1479 1479 1479 1477 1474 1469 1465 1459 1458 1457 1455 1453 1451 1448 1446 1444 1441 1438 1437 1435 1434 1433 1433 1432 1432 1433 1433 1433 1433 1434 1435 1435 1436 1437 1438 1439 1439
1497 1498 1495 1488 1483 1482 1479 1473 1473 1472 1469 1469 1468 1462 1457 1457 1455 1454 1452 1450 1448 1446 1443 1441 1439 1436 1435 1434 1433 1432 1431 1431 1431 1432 1432 1432 1432 1432 1433 1434 1435 1436 1436 1436
1496 1496 1495 1491 1488 1485 1470 1465 1465 1466 1464 1463 1461 1459 1457 1456 1454 1453 1451 1449 1447 1445 1442 1440 1438 1436 1434 1433 1432 1431 1431 1430 1430 1430 1430 1431 1431 1431 1432 1432 1433 1434 1434 1434
1492 1494 1493 1492 1487 1475 1466 1464 1465 1466 1463 1459 1459 1457 1456 1454 1452 1450 1449 1448 1446 1444 1442 1440 1437 1436 1434 1432 1432 1431 1430 1430 1429 1429 1430 1430 1430 1430 1430 1430 1431 1432 1432 1433
1491 1493 1495 1489 1486 1477 1464 1464 1462 1465 1464 1457 1456 1456 1455 1454 1454 1451 1448 1446 1444 1442 1440 1439 1437 1435 1433 1432 1431 1430 1429 1429 1428 1428 1428 1428 1429 1429 1429 1429 1429 1430 1430 1430
1494 1493 1493 1488 1483 1472 1465 1464 1464 1468 1463 1458 1456 1455 1454 1453 1453 1450 1447 1445 1443 1441 1439 1437 1436 1434 1432 1431 1430 1428 1428 1427 1427 1427 1426 1427 1427 1427 1427 1427 1428 1428 1428 1428
1487 1489 1489 1486 1483 1474 1464 1464 1465 1462 1458 1457 1455 1454 1452 1451 1449 1447 1445 1443 1442 1440 1438 1436 1434 1433 1432 1430 1429 1427 1426 1426 1425 1425 1425 1425 1425 1425 1425 1425 1426 1426 1426 1426
1477 1476 1475 1475 1471 1463 1461 1460 1459 1458 1457 1455 1453 1451 1450 1448 1447 1445 1444 1442 1440 1439 1437 1435 1434 1432 1431 1430 1428 1426 1425 1425 1423 1423 1423 1423 1423 1424 1424 1424 1424 1424 1425 1424
1471 1469 1470 1468 1462 1459 1458 1457 1457 1456 1455 1453 1451 1449 1448 1446 1445 1443 1442 1441 1439 1438 1436 1435 1433 1431 1430 1429 1427 1426 1424 1423 1422 1421 1421 1421 1421 1422 1422 1423 1423 1423 1423 1423
1467 1468 1467 1465 1460 1457 1455 1455 1454 1453 1451 1450 1449 1447 1445 1444 1443 1442 1440 1439 1438 1437 1435 1434 1432 1430 1429 1427 1426 1424 1423 1422 1421 1420 1420 1420 1421 1421 1421 1421 1422 1422 1422 1422
1463 1465 1466 1461 1457 1457 1454 1452 1451 1450 1448 1447 1445 1444 1443 1442 1440 1440 1439 1438 1437 1435 1434 1433 1431 1430 1428 1427 1425 1424 1422 1421 1420 1419 1419 1419 1419 1419 1419 1419 1420 1420 1420 1420